Track COSMOS 736 now! 10-day predictions COSMOS 736 is classified as:
1 07825U 75045E 21060.91707815 .00000005 00000-0 14543-3 0 9995 2 07825 74.0170 126.1857 0010137 141.5593 30.3046 12.46851681 82966